QPF
0.00 0.00 0.00 0.00 0.00 0.00 0.00 0.00 0.01 0.01 0.01 0.00 0.00 0.00 0.00 0.00 0.00 0.00 0.00 0.00 0.01 0.01 0.03 0.05 0.05 0.07 0.09 0.10 0.13 0.16 0.16 0.14 0.12 0.12 0.11 0.10 0.09 0.08
0.00 0.00 0.00 0.00 0.00 0.00 0.00 0.00 0.00 0.00 0.00 0.00 0.00 0.00 0.00 0.00 0.00 0.00 0.00 0.00 0.01 0.01 0.02 0.03 0.04 0.05 0.06 0.07 0.08 0.09 0.09 0.09 0.08 0.08 0.08 0.07 0.07 0.06
0.00 0.00 0.00 0.00 0.00 0.00 0.00 0.00 0.00 0.00 0.00 0.00 0.00 0.00 0.00 0.00 0.00 0.00 0.00 0.00 0.00 0.01 0.01 0.01 0.02 0.04 0.05 0.05 0.06 0.06 0.06 0.05 0.05 0.04 0.04 0.04 0.04 0.03
0.00 0.00 0.00 0.00 0.00 0.00 0.00 0.00 0.00 0.00 0.00 0.00 0.00 0.00 0.00 0.00 0.00 0.00 0.00 0.00 0.00 0.00 0.01 0.01 0.01 0.02 0.02 0.02 0.02 0.02 0.02 0.02 0.02 0.02 0.02 0.02 0.02 0.02
0.00 0.00 0.00 0.00 0.00 0.00 0.00 0.00 0.00 0.00 0.00 0.00 0.00 0.00 0.00 0.00 0.00 0.00 0.00 0.00 0.00 0.00 0.00 0.00 0.00 0.00 0.00 0.00 0.00 0.00 0.00 0.01 0.01 0.01 0.01 0.01 0.01 0.01
0.00 0.00 0.00 0.00 0.00 0.00 0.00 0.00 0.00 0.00 0.00 0.00 0.00 0.00 0.00 0.00 0.00 0.00 0.00 0.00 0.00 0.00 0.00 0.00 0.00 0.00 0.00 0.00 0.00 0.00 0.00 0.00 0.00 0.00 0.00 0.00 0.00 0.00
0.00 0.00 0.00 0.00 0.00 0.00 0.00 0.00 0.00 0.00 0.00 0.00 0.00 0.00 0.00 0.00 0.00 0.00 0.00 0.00 0.00 0.00 0.00 0.00 0.00 0.00 0.00 0.00 0.00 0.00 0.00 0.00 0.00 0.00 0.00 0.00 0.00 0.00
0.00 0.00 0.00 0.00 0.00 0.00 0.00 0.00 0.00 0.00 0.00 0.00 0.00 0.00 0.00 0.00 0.00 0.00 0.00 0.00 0.00 0.00 0.00 0.00 0.00 0.00 0.00 0.00 0.00 0.00 0.00 0.00 0.00 0.00 0.00 0.00 0.00 0.00
0.00 0.00 0.00 0.00 0.00 0.00 0.00 0.00 0.00 0.00 0.00 0.00 0.00 0.00 0.00 0.00 0.00 0.00 0.00 0.00 0.00 0.00 0.00 0.00 0.00 0.00 0.00 0.00 0.00 0.00 0.00 0.00 0.00 0.00 0.00 0.00 0.00 0.00
0.00 0.00 0.00 0.00 0.00 0.00 0.00 0.00 0.00 0.00 0.00 0.00 0.00 0.00 0.00 0.00 0.00 0.00 0.00 0.00 0.00 0.00 0.00 0.00 0.00 0.00 0.00 0.00 0.00 0.00 0.00 0.00 0.00 0.00 0.00 0.00 0.00 0.00
0.00 0.00 0.00 0.00 0.00 0.00 0.00 0.00 0.00 0.00 0.00 0.00 0.00 0.00 0.00 0.00 0.00 0.00 0.00 0.00 0.00 0.00 0.00 0.00 0.00 0.00 0.00 0.00 0.00 0.00 0.00 0.00 0.00 0.00 0.00 0.00 0.00 0.00
0.00 0.00 0.00 0.00 0.00 0.00 0.00 0.00 0.00 0.00 0.00 0.00 0.00 0.00 0.00 0.00 0.00 0.00 0.00 0.00 0.00 0.00 0.00 0.00 0.00 0.00 0.00 0.00 0.00 0.00 0.00 0.00 0.00 0.00 0.00 0.00 0.00 0.00
0.00 0.00 0.00 0.00 0.00 0.00 0.00 0.00 0.00 0.00 0.00 0.00 0.00 0.00 0.00 0.00 0.00 0.00 0.00 0.00 0.00 0.00 0.00 0.00 0.00 0.00 0.00 0.00 0.00 0.00 0.00 0.00 0.00 0.00 0.00 0.00 0.00 0.00
0.00 0.00 0.00 0.00 0.00 0.00 0.00 0.00 0.00 0.00 0.00 0.00 0.00 0.00 0.00 0.00 0.00 0.00 0.00 0.00 0.00 0.00 0.00 0.00 0.00 0.00 0.00 0.00 0.00 0.00 0.00 0.00 0.00 0.00 0.00 0.00 0.00 0.00
0.00 0.00 0.00 0.00 0.00 0.00 0.00 0.00 0.00 0.00 0.00 0.00 0.00 0.00 0.00 0.00 0.00 0.00 0.00 0.00 0.00 0.00 0.00 0.00 0.00 0.00 0.00 0.00 0.00 0.00 0.00 0.00 0.00 0.00 0.00 0.00 0.00 0.00
0.00 0.00 0.00 0.00 0.00 0.00 0.00 0.00 0.00 0.00 0.00 0.00 0.00 0.00 0.00 0.00 0.00 0.00 0.00 0.00 0.00 0.00 0.00 0.00 0.00 0.00 0.00 0.00 0.00 0.00 0.00 0.00 0.00 0.00 0.00 0.00 0.00 0.00
0.00 0.00 0.00 0.00 0.00 0.00 0.00 0.00 0.00 0.00 0.00 0.00 0.00 0.00 0.00 0.00 0.00 0.00 0.00 0.00 0.00 0.00 0.00 0.00 0.00 0.00 0.00 0.00 0.00 0.00 0.00 0.00 0.00 0.00 0.00 0.00 0.00 0.00
0.00 0.00 0.00 0.00 0.00 0.00 0.00 0.00 0.00 0.00 0.00 0.00 0.00 0.00 0.00 0.00 0.00 0.00 0.00 0.00 0.00 0.00 0.00 0.00 0.00 0.00 0.00 0.00 0.00 0.00 0.00 0.00 0.00 0.00 0.00 0.00 0.00 0.00
0.00 0.00 0.00 0.00 0.00 0.00 0.00 0.00 0.00 0.00 0.00 0.00 0.00 0.00 0.00 0.00 0.00 0.00 0.00 0.00 0.00 0.00 0.00 0.00 0.00 0.01 0.01 0.01 0.00 0.00 0.00 0.00 0.00 0.00 0.00 0.00 0.00 0.00
0.00 0.00 0.00 0.00 0.00 0.00 0.00 0.00 0.00 0.00 0.00 0.00 0.00 0.00 0.00 0.00 0.00 0.00 0.00 0.00 0.00 0.00 0.00 0.00 0.00 0.01 0.01 0.01 0.01 0.00 0.00 0.00 0.00 0.00 0.00 0.00 0.00 0.00
0.00 0.00 0.00 0.00 0.00 0.00 0.00 0.00 0.00 0.00 0.00 0.00 0.00 0.00 0.00 0.00 0.00 0.00 0.00 0.00 0.00 0.00 0.00 0.00 0.00 0.00 0.01 0.03 0.02 0.00 0.00 0.00 0.00 0.00 0.00 0.01 0.01 0.00
0.00 0.00 0.00 0.00 0.00 0.00 0.00 0.00 0.00 0.00 0.00 0.00 0.00 0.00 0.00 0.00 0.00 0.00 0.00 0.00 0.00 0.00 0.00 0.00 0.00 0.00 0.01 0.02 0.01 0.00 0.00 0.00 0.00 0.00 0.00 0.01 0.02 0.01
0.00 0.00 0.00 0.00 0.00 0.00 0.00 0.00 0.00 0.00 0.00 0.00 0.00 0.00 0.00 0.00 0.00 0.00 0.00 0.00 0.01 0.01 0.01 0.00 0.00 0.01 0.01 0.01 0.01 0.01 0.00 0.00 0.00 0.00 0.00 0.00 0.00 0.00
MSLP
1019.56 1019.71 1019.87 1020.01 1020.11 1020.17 1020.20 1020.24 1020.30 1020.41 1020.59 1020.84 1021.15 1021.48 1021.79 1022.04 1022.21 1022.25 1022.17 1021.98 1021.68 1021.33 1020.94 1020.56 1020.22 1019.94 1019.74 1019.63 1019.61 1019.69 1019.86 1020.11 1020.43 1020.79 1021.18 1021.56 1021.92 1022.23
1019.89 1020.06 1020.22 1020.36 1020.47 1020.53 1020.56 1020.58 1020.62 1020.70 1020.83 1021.03 1021.28 1021.56 1021.84 1022.09 1022.27 1022.35 1022.34 1022.23 1022.03 1021.76 1021.46 1021.15 1020.86 1020.61 1020.42 1020.30 1020.27 1020.31 1020.44 1020.63 1020.88 1021.17 1021.48 1021.78 1022.05 1022.28
1020.27 1020.45 1020.61 1020.76 1020.86 1020.93 1020.96 1020.97 1021.00 1021.05 1021.15 1021.30 1021.50 1021.73 1021.98 1022.21 1022.39 1022.51 1022.55 1022.50 1022.38 1022.20 1021.98 1021.74 1021.50 1021.29 1021.12 1021.01 1020.96 1020.98 1021.07 1021.21 1021.40 1021.62 1021.85 1022.07 1022.25 1022.40
1020.67 1020.85 1021.02 1021.17 1021.28 1021.35 1021.39 1021.41 1021.43 1021.47 1021.55 1021.66 1021.82 1022.02 1022.23 1022.43 1022.60 1022.73 1022.80 1022.80 1022.74 1022.62 1022.46 1022.27 1022.08 1021.91 1021.76 1021.65 1021.59 1021.59 1021.65 1021.75 1021.89 1022.05 1022.21 1022.35 1022.47 1022.55
1021.07 1021.26 1021.43 1021.58 1021.70 1021.78 1021.84 1021.87 1021.91 1021.95 1022.02 1022.11 1022.24 1022.40 1022.57 1022.74 1022.90 1023.02 1023.09 1023.11 1023.08 1022.99 1022.87 1022.72 1022.56 1022.40 1022.26 1022.15 1022.09 1022.07 1022.09 1022.16 1022.26 1022.37 1022.48 1022.57 1022.63 1022.66
1021.47 1021.65 1021.81 1021.96 1022.09 1022.19 1022.27 1022.33 1022.38 1022.44 1022.51 1022.60 1022.72 1022.85 1022.99 1023.12 1023.25 1023.34 1023.40 1023.42 1023.39 1023.32 1023.21 1023.08 1022.92 1022.76 1022.61 1022.49 1022.40 1022.36 1022.35 1022.39 1022.45 1022.52 1022.60 1022.66 1022.68 1022.68
1021.85 1022.01 1022.17 1022.31 1022.44 1022.55 1022.65 1022.74 1022.82 1022.90 1022.99 1023.08 1023.18 1023.29 1023.40 1023.51 1023.60 1023.67 1023.71 1023.72 1023.68 1023.60 1023.49 1023.35 1023.18 1023.00 1022.83 1022.68 1022.56 1022.48 1022.43 1022.43 1022.46 1022.50 1022.55 1022.59 1022.60 1022.58
1022.20 1022.34 1022.47 1022.61 1022.73 1022.86 1022.97 1023.08 1023.18 1023.28 1023.38 1023.48 1023.57 1023.67 1023.76 1023.85 1023.91 1023.96 1023.99 1023.98 1023.93 1023.84 1023.72 1023.56 1023.38 1023.18 1022.97 1022.78 1022.61 1022.48 1022.39 1022.34 1022.32 1022.34 1022.36 1022.38 1022.39 1022.37
1022.51 1022.61 1022.72 1022.84 1022.96 1023.08 1023.20 1023.32 1023.44 1023.55 1023.66 1023.76 1023.85 1023.94 1024.02 1024.09 1024.15 1024.19 1024.21 1024.19 1024.15 1024.06 1023.93 1023.77 1023.57 1023.34 1023.11 1022.87 1022.65 1022.46 1022.31 1022.20 1022.13 1022.10 1022.09 1022.09 1022.09 1022.07
1022.73 1022.81 1022.90 1023.00 1023.11 1023.23 1023.35 1023.47 1023.58 1023.70 1023.80 1023.90 1024.00 1024.08 1024.16 1024.23 1024.29 1024.34 1024.37 1024.37 1024.34 1024.27 1024.15 1023.99 1023.79 1023.55 1023.29 1023.01 1022.74 1022.48 1022.27 1022.09 1021.96 1021.87 1021.82 1021.79 1021.77 1021.75
1022.86 1022.93 1023.01 1023.10 1023.20 1023.31 1023.41 1023.53 1023.63 1023.74 1023.84 1023.94 1024.03 1024.11 1024.19 1024.27 1024.35 1024.41 1024.47 1024.50 1024.50 1024.47 1024.38 1024.25 1024.06 1023.82 1023.54 1023.23 1022.91 1022.61 1022.32 1022.08 1021.88 1021.73 1021.62 1021.55 1021.49 1021.46
1022.89 1022.96 1023.05 1023.14 1023.23 1023.33 1023.43 1023.53 1023.63 1023.72 1023.81 1023.89 1023.98 1024.06 1024.15 1024.24 1024.34 1024.43 1024.52 1024.59 1024.64 1024.64 1024.60 1024.50 1024.34 1024.11 1023.83 1023.51 1023.16 1022.81 1022.47 1022.17 1021.90 1021.68 1021.51 1021.38 1021.29 1021.22
1022.82 1022.92 1023.02 1023.13 1023.23 1023.33 1023.42 1023.51 1023.59 1023.67 1023.74 1023.82 1023.90 1023.98 1024.07 1024.18 1024.29 1024.41 1024.53 1024.64 1024.72 1024.77 1024.77 1024.70 1024.57 1024.37 1024.10 1023.78 1023.42 1023.04 1022.66 1022.31 1021.98 1021.70 1021.47 1021.28 1021.14 1021.02
1022.65 1022.80 1022.94 1023.08 1023.20 1023.31 1023.40 1023.48 1023.55 1023.62 1023.68 1023.75 1023.82 1023.91 1024.01 1024.12 1024.24 1024.37 1024.51 1024.63 1024.74 1024.81 1024.83 1024.79 1024.69 1024.51 1024.26 1023.95 1023.59 1023.20 1022.80 1022.41 1022.05 1021.72 1021.43 1021.19 1020.99 1020.83
1022.41 1022.62 1022.81 1022.98 1023.13 1023.26 1023.36 1023.44 1023.51 1023.58 1023.64 1023.70 1023.77 1023.86 1023.96 1024.07 1024.19 1024.31 1024.44 1024.56 1024.66 1024.73 1024.75 1024.72 1024.62 1024.46 1024.23 1023.93 1023.58 1023.20 1022.80 1022.39 1022.01 1021.64 1021.32 1021.03 1020.78 1020.57
1022.11 1022.37 1022.62 1022.83 1023.02 1023.16 1023.28 1023.38 1023.46 1023.52 1023.59 1023.66 1023.74 1023.82 1023.92 1024.02 1024.12 1024.23 1024.32 1024.41 1024.47 1024.51 1024.51 1024.46 1024.35 1024.18 1023.95 1023.67 1023.34 1022.97 1022.58 1022.18 1021.79 1021.41 1021.06 1020.74 1020.45 1020.19
1021.74 1022.06 1022.35 1022.60 1022.82 1022.99 1023.13 1023.24 1023.34 1023.43 1023.51 1023.59 1023.68 1023.77 1023.86 1023.95 1024.03 1024.10 1024.15 1024.18 1024.18 1024.16 1024.10 1024.01 1023.87 1023.68 1023.45 1023.17 1022.86 1022.51 1022.13 1021.75 1021.36 1020.98 1020.61 1020.27 1019.95 1019.65
1021.30 1021.65 1021.98 1022.26 1022.50 1022.70 1022.86 1022.99 1023.11 1023.23 1023.34 1023.45 1023.56 1023.66 1023.75 1023.83 1023.88 1023.91 1023.90 1023.87 1023.80 1023.71 1023.58 1023.42 1023.23 1023.02 1022.77 1022.49 1022.18 1021.84 1021.49 1021.12 1020.74 1020.36 1019.99 1019.63 1019.29 1018.96
1020.78 1021.15 1021.49 1021.79 1022.04 1022.26 1022.44 1022.60 1022.75 1022.90 1023.04 1023.19 1023.32 1023.45 1023.55 1023.62 1023.65 1023.64 1023.59 1023.49 1023.35 1023.19 1022.99 1022.77 1022.53 1022.27 1022.00 1021.71 1021.40 1021.08 1020.73 1020.38 1020.00 1019.63 1019.25 1018.87 1018.51 1018.16
1020.16 1020.53 1020.87 1021.18 1021.44 1021.67 1021.87 1022.05 1022.23 1022.41 1022.60 1022.78 1022.95 1023.10 1023.22 1023.30 1023.32 1023.29 1023.20 1023.06 1022.87 1022.64 1022.39 1022.12 1021.83 1021.54 1021.25 1020.94 1020.63 1020.30 1019.95 1019.60 1019.22 1018.84 1018.44 1018.05 1017.66 1017.28
1019.44 1019.81 1020.14 1020.44 1020.70 1020.94 1021.15 1021.36 1021.57 1021.79 1022.01 1022.23 1022.44 1022.62 1022.76 1022.86 1022.89 1022.85 1022.75 1022.58 1022.36 1022.10 1021.81 1021.51 1021.19 1020.88 1020.56 1020.24 1019.91 1019.57 1019.22 1018.85 1018.46 1018.05 1017.63 1017.21 1016.79 1016.38
1018.66 1019.00 1019.32 1019.61 1019.87 1020.11 1020.35 1020.57 1020.81 1021.05 1021.31 1021.56 1021.80 1022.01 1022.19 1022.30 1022.35 1022.32 1022.22 1022.06 1021.83 1021.56 1021.26 1020.95 1020.62 1020.29 1019.95 1019.62 1019.27 1018.91 1018.54 1018.14 1017.72 1017.27 1016.82 1016.35 1015.90 1015.45
1017.83 1018.16 1018.46 1018.74 1019.00 1019.25 1019.49 1019.74 1019.99 1020.26 1020.54 1020.81 1021.07 1021.31 1021.50 1021.64 1021.71 1021.70 1021.62 1021.47 1021.26 1021.00 1020.71 1020.40 1020.07 1019.73 1019.39 1019.04 1018.67 1018.28 1017.87 1017.43 1016.97 1016.48 1015.98 1015.47 1014.97 1014.49
Thickness
5591 5589 5586 5583 5580 5577 5575 5572 5569 5565 5561 5554 5546 5541 5538 5534 5531 5529 5528 5527 5527 5526 5525 5524 5524 5522 5520 5517 5514 5510 5505 5500 5495 5490 5485 5482 5479 5477
5579 5577 5574 5571 5568 5564 5562 5559 5556 5554 5551 5543 5536 5531 5528 5525 5522 5520 5518 5517 5517 5516 5515 5514 5513 5512 5509 5507 5503 5499 5496 5492 5487 5483 5479 5475 5472 5471
5566 5564 5561 5558 5555 5552 5550 5547 5544 5541 5539 5532 5526 5522 5518 5515 5512 5510 5509 5508 5506 5505 5504 5503 5502 5500 5498 5495 5492 5489 5485 5482 5478 5475 5472 5470 5467 5466
5553 5550 5548 5545 5542 5539 5537 5534 5531 5529 5527 5523 5517 5512 5509 5506 5503 5502 5500 5498 5497 5495 5494 5492 5490 5488 5486 5484 5481 5478 5475 5472 5470 5467 5465 5463 5461 5460
5539 5537 5534 5532 5529 5526 5524 5521 5519 5518 5516 5513 5507 5503 5500 5497 5495 5493 5492 5490 5488 5486 5484 5482 5480 5478 5476 5474 5471 5469 5466 5464 5461 5459 5457 5456 5454 5453
5524 5523 5521 5519 5517 5515 5512 5509 5509 5507 5505 5502 5498 5495 5492 5489 5487 5484 5482 5480 5478 5477 5475 5473 5470 5468 5466 5464 5462 5459 5457 5455 5453 5451 5450 5448 5447 5446
5510 5509 5507 5506 5505 5504 5502 5499 5498 5496 5493 5491 5489 5486 5483 5480 5476 5474 5472 5470 5468 5466 5464 5463 5461 5460 5457 5455 5453 5450 5448 5446 5444 5442 5441 5439 5438 5437
5497 5496 5495 5494 5493 5493 5491 5489 5487 5485 5482 5479 5478 5476 5473 5469 5466 5465 5460 5458 5456 5455 5453 5452 5452 5450 5448 5446 5443 5441 5439 5437 5435 5433 5431 5430 5428 5428
5486 5485 5485 5483 5482 5482 5480 5479 5477 5475 5473 5470 5467 5465 5462 5459 5456 5453 5450 5447 5445 5444 5442 5440 5441 5439 5438 5436 5434 5431 5429 5427 5425 5423 5421 5419 5418 5417
5476 5475 5474 5473 5473 5472 5470 5468 5466 5464 5462 5460 5457 5454 5452 5450 5447 5443 5441 5438 5437 5436 5433 5428 5428 5427 5427 5425 5424 5421 5418 5416 5414 5411 5410 5408 5407 5405
5466 5466 5466 5464 5464 5463 5461 5459 5457 5455 5453 5451 5449 5446 5444 5441 5438 5434 5430 5426 5424 5423 5421 5417 5415 5414 5414 5414 5412 5409 5406 5404 5401 5399 5397 5395 5394 5392
5458 5458 5458 5456 5456 5455 5452 5450 5448 5446 5444 5442 5439 5437 5434 5431 5428 5424 5420 5414 5411 5408 5408 5405 5401 5398 5396 5398 5397 5395 5393 5390 5388 5386 5384 5382 5380 5379
5450 5450 5449 5449 5447 5446 5445 5442 5440 5438 5435 5432 5430 5427 5425 5421 5418 5414 5410 5405 5399 5396 5395 5391 5387 5384 5380 5379 5382 5381 5379 5376 5374 5372 5370 5368 5367 5366
5443 5442 5442 5441 5439 5438 5436 5434 5432 5430 5426 5423 5420 5418 5414 5410 5407 5404 5400 5396 5392 5387 5384 5380 5374 5370 5365 5362 5363 5365 5364 5362 5361 5359 5357 5355 5353 5352
5437 5436 5435 5433 5432 5429 5428 5426 5423 5419 5416 5413 5411 5408 5405 5401 5397 5393 5390 5386 5383 5379 5376 5371 5366 5360 5355 5350 5349 5349 5347 5349 5347 5346 5344 5342 5340 5338
5431 5429 5428 5426 5424 5422 5420 5417 5414 5410 5407 5404 5401 5398 5395 5391 5387 5383 5379 5375 5371 5369 5367 5363 5358 5352 5346 5342 5338 5337 5335 5334 5336 5333 5332 5330 5329 5327
5425 5422 5419 5417 5415 5413 5411 5408 5405 5402 5399 5395 5392 5389 5386 5382 5378 5374 5369 5365 5360 5357 5355 5352 5349 5344 5339 5334 5330 5330 5328 5326 5324 5322 5320 5320 5319 5317
5420 5416 5413 5411 5409 5407 5404 5401 5398 5394 5391 5387 5383 5379 5375 5371 5367 5364 5360 5355 5350 5347 5344 5341 5338 5334 5331 5328 5325 5323 5319 5317 5315 5312 5310 5310 5312 5309
5415 5411 5408 5406 5403 5401 5397 5393 5390 5387 5383 5379 5374 5370 5365 5361 5357 5353 5350 5346 5342 5339 5335 5331 5327 5323 5320 5319 5319 5314 5310 5307 5303 5302 5300 5300 5301 5302
5410 5407 5404 5401 5398 5394 5390 5387 5383 5379 5375 5371 5366 5361 5357 5352 5348 5344 5340 5336 5333 5329 5326 5321 5317 5313 5310 5308 5308 5305 5300 5296 5294 5293 5291 5290 5291 5292
5406 5403 5400 5396 5393 5389 5385 5380 5376 5372 5368 5363 5359 5354 5349 5344 5340 5336 5332 5329 5325 5321 5318 5314 5310 5306 5302 5298 5298 5299 5292 5287 5284 5282 5281 5280 5283 5285
5402 5399 5395 5391 5387 5383 5378 5374 5369 5365 5361 5356 5352 5347 5342 5337 5333 5328 5324 5320 5316 5313 5310 5306 5301 5296 5291 5288 5289 5288 5286 5281 5278 5275 5274 5273 5271 5276
5399 5395 5391 5386 5382 5377 5372 5368 5363 5359 5355 5350 5345 5341 5335 5331 5326 5322 5317 5313 5309 5305 5301 5297 5292 5287 5283 5280 5279 5278 5276 5274 5272 5271 5270 5266 5266 5269